Temperature
23 24 26 26 26 26 24 22 22 23 23 23 23 23 24 24 24 23 23 24 23 23 23 23 22 21 21 21 20 20 20 20 19 19 18 18 18 18 17 17 17 17 17 16
23 25 25 26 26 26 26 25 24 24 24 23 24 24 24 24 23 23 23 23 23 23 23 22 22 21 21 20 20 20 20 20 19 19 18 18 18 17 17 17 17 16 16 16
21 23 24 24 25 26 26 25 25 24 23 23 23 23 23 23 24 23 23 23 23 23 23 23 22 22 21 21 20 20 20 19 19 18 18 18 17 17 17 16 16 16 16 16
19 22 23 22 24 26 25 25 24 24 23 23 23 24 24 25 24 24 24 23 23 23 23 22 22 21 21 21 20 19 19 19 18 18 18 17 17 17 16 16 16 16 16 15
17 20 22 23 25 25 24 24 23 23 22 23 23 23 23 24 25 25 24 24 24 23 23 22 22 21 21 20 20 19 19 18 18 18 18 17 17 16 16 16 16 15 15 15
18 20 21 22 24 26 24 23 23 23 22 22 23 20 21 24 24 24 24 24 23 23 22 22 21 21 20 20 19 19 19 18 18 18 18 17 17 16 16 15 15 15 15 14
18 20 20 22 24 25 23 22 23 24 23 23 22 22 23 24 24 24 24 23 23 22 22 22 21 20 20 20 19 19 19 18 18 17 17 17 16 16 16 15 15 15 14 14
17 19 20 22 23 22 21 23 24 24 24 24 24 24 23 23 23 23 23 22 22 22 22 21 21 20 20 20 19 19 18 18 17 17 17 16 16 15 15 15 15 14 14 14
17 18 20 22 22 23 24 23 23 24 24 24 23 23 23 23 23 22 22 22 22 22 21 21 20 20 20 19 19 18 18 17 17 16 16 16 15 15 15 15 14 14 14 13
17 18 20 22 22 23 23 23 23 24 24 24 23 23 22 22 22 22 21 21 21 21 21 20 20 19 19 19 19 18 18 17 17 16 16 15 15 15 15 15 14 14 14 13
17 17 19 21 21 22 22 23 23 23 23 23 23 22 22 22 21 21 21 21 21 21 20 20 20 19 19 18 18 18 17 17 16 16 15 15 15 15 15 15 14 14 14 14
16 17 17 19 21 22 22 22 22 22 22 22 22 22 22 21 21 21 21 21 20 20 20 20 19 19 18 18 18 17 17 16 16 16 15 15 15 15 14 14 14 14 13 13
18 19 19 20 20 21 21 21 21 21 21 21 21 21 21 20 20 20 20 20 20 20 19 19 19 18 18 17 17 17 17 16 16 16 15 15 15 14 14 14 14 13 13 13
19 19 19 19 19 20 20 20 21 21 21 20 21 21 20 20 20 20 20 20 19 19 19 18 18 18 18 17 17 16 16 16 16 16 15 15 15 14 14 14 14 13 13 13
19 19 19 19 19 19 19 20 20 20 19 19 20 20 20 19 19 19 19 19 19 19 18 18 18 17 17 17 17 16 16 16 15 15 15 15 14 14 14 14 13 13 13 13
18 18 18 18 18 18 19 19 19 19 19 19 19 19 19 19 19 19 19 18 18 18 18 17 17 17 17 16 16 16 15 15 15 15 15 14 14 14 14 14 13 13 13 13
17 17 17 18 18 18 18 18 19 18 18 18 18 18 18 18 18 18 18 18 18 17 17 17 17 17 16 16 16 15 15 15 15 15 14 14 14 14 14 13 13 13 13 13
17 17 18 18 17 18 18 18 18 18 18 18 18 18 18 18 18 18 17 17 17 17 17 16 16 16 16 16 16 15 15 15 15 14 14 14 14 14 14 13 13 13 13 12
17 17 17 17 17 17 17 17 17 17 17 17 18 18 18 18 17 17 17 17 17 16 16 16 16 16 15 15 15 15 15 15 14 14 14 14 14 14 14 13 13 13 13 12
17 17 17 17 17 17 17 17 17 17 17 17 17 17 17 17 17 17 17 16 16 16 16 15 15 15 15 15 15 15 15 14 14 14 14 14 14 14 13 13 13 13 12 12
16 16 17 16 16 16 16 16 17 16 16 17 17 17 17 16 16 16 16 16 16 16 15 15 15 15 15 15 14 14 14 14 14 14 14 14 13 13 13 13 13 12 12 12
16 16 16 16 16 16 16 16 16 16 16 16 16 16 16 16 16 15 15 15 15 15 15 15 15 15 14 14 14 14 14 14 14 14 13 13 13 13 13 13 12 12 12 12
15 15 15 15 15 15 16 16 16 16 16 16 16 16 16 15 15 15 15 15 15 15 15 14 14 14 14 14 14 14 14 13 13 13 13 13 13 13 12 12 12 12 11 11
14 14 14 14 15 15 15 15 15 15 15 15 15 15 15 15 15 15 15 14 14 14 14 14 14 14 14 14 13 13 13 13 13 13 12 12 12 12 12 12 11 11 11 11
14 14 14 14 14 14 14 14 14 14 15 14 14 14 14 14 14 14 14 14 14 14 14 14 13 13 13 13 13 13 13 13 12 12 12 12 12 12 11 11 11 11 10 10
13 13 13 13 14 14 14 14 14 14 14 14 14 14 14 14 14 14 13 13 13 13 13 13 13 13 13 13 12 12 12 12 12 12 12 11 11 11 11 11 11 10 10 10
13 13 13 13 13 13 13 13 13 13 13 14 13 13 13 13 13 13 13 13 13 13 13 13 13 12 12 12 12 12 12 11 11 11 11 11 11 11 11 10 10 10 10 10
Wind_Speed
5 5 3 4 6 6 6 9 9 9 10 11 12 11 10 9 10 12 11 10 10 10 9 8 8 8 8 8 8 8 8 7 6 5 4 4 4 4 4 4 4 4 4 4
1 1 0 3 6 6 6 6 6 6 6 7 7 8 9 10 12 12 11 10 11 11 10 10 10 9 9 9 8 8 8 7 6 5 5 5 5 5 5 4 4 5 4 4
2 2 3 4 6 6 5 4 8 8 8 6 8 11 13 12 12 12 12 11 11 11 11 10 10 9 9 9 8 8 8 7 6 6 6 5 6 5 5 4 4 4 4 4
3 3 5 10 6 5 5 3 5 7 8 10 10 9 7 10 12 11 11 11 11 10 10 9 8 8 8 8 8 8 8 7 6 6 6 5 6 6 5 4 4 4 4 4
4 3 5 7 4 4 5 3 3 8 9 8 9 7 2 4 9 11 11 11 10 10 10 9 9 10 10 9 8 8 8 7 6 7 7 6 6 5 5 5 4 4 4 4
5 5 6 8 7 2 6 2 3 9 12 10 9 5 5 6 6 7 8 8 8 9 9 10 10 10 10 9 8 8 8 7 6 7 7 7 6 5 5 5 5 5 4 4
5 3 7 7 6 2 5 8 5 9 11 10 7 8 8 8 7 8 9 8 8 9 9 9 10 11 10 9 8 8 8 7 6 6 6 6 5 5 5 5 5 5 5 3
5 4 7 6 3 4 7 4 6 8 9 8 6 7 7 7 7 8 8 9 10 10 8 8 10 11 10 9 8 8 8 8 7 6 6 5 6 5 5 6 6 5 4 3
7 7 7 3 2 2 4 5 5 6 6 10 9 8 7 7 6 6 8 8 8 10 9 7 8 10 10 9 9 9 9 7 6 6 5 5 6 5 5 5 5 4 4 3
1 2 2 2 4 4 4 4 5 7 8 9 9 9 9 7 5 5 6 7 7 9 9 8 7 8 9 9 10 10 9 8 7 6 5 4 4 4 5 4 5 5 4 4
1 1 4 5 4 4 5 6 6 6 6 7 8 8 8 7 7 6 6 6 7 9 9 9 8 8 8 10 11 10 9 8 7 6 6 5 4 2 3 3 5 6 5 5
4 5 3 3 2 3 5 4 5 6 4 5 7 7 6 6 6 6 7 7 8 8 9 8 8 8 8 9 11 11 9 8 6 6 5 5 5 3 5 3 2 5 7 7
4 4 3 3 1 2 3 2 4 5 5 5 6 6 7 5 4 6 7 8 9 9 9 9 8 8 8 9 10 10 9 8 7 7 7 6 6 6 4 3 5 4 4 6
2 3 2 1 1 2 3 4 4 4 3 4 5 6 6 4 4 7 8 8 9 9 9 9 9 8 8 8 9 9 9 9 8 7 7 7 7 6 6 6 4 1 1 3
1 4 4 2 1 2 3 4 6 4 4 3 4 4 5 5 5 6 7 8 9 9 8 9 9 8 7 8 9 9 8 7 7 6 6 6 6 6 6 6 5 4 2 1
0 4 5 4 2 2 3 4 4 3 3 3 3 3 4 6 6 6 6 7 9 9 8 8 8 7 8 8 8 7 6 8 8 6 6 6 6 6 6 6 5 5 5 4
3 2 2 2 1 1 2 3 4 4 3 3 3 3 5 7 6 6 6 6 6 7 7 6 7 7 8 8 8 6 6 7 8 7 6 7 6 7 7 6 6 6 5 6
4 4 4 4 3 1 1 3 4 4 3 3 4 4 5 7 7 6 6 6 6 5 4 5 6 7 7 7 7 6 6 6 6 6 6 6 6 6 6 7 7 7 5 5
3 3 3 3 2 2 2 2 3 4 4 4 5 5 4 5 6 7 7 7 7 5 3 4 7 7 6 7 7 6 6 6 5 5 5 6 6 5 5 6 6 6 6 5
3 3 3 2 1 1 1 1 3 4 3 4 5 5 5 4 5 6 7 5 4 4 4 5 6 5 5 5 7 5 6 6 6 5 5 5 5 5 5 6 6 6 6 6
2 3 2 2 1 1 1 2 3 3 2 4 6 6 6 5 5 6 6 4 2 3 5 6 4 4 4 5 6 5 5 5 5 5 5 6 5 5 5 5 5 5 5 5
3 2 1 1 1 0 1 2 3 3 2 2 4 5 5 5 5 4 3 3 3 5 5 4 3 5 6 6 4 4 5 5 5 5 5 5 6 5 5 5 5 5 5 5
2 2 1 1 1 1 1 1 2 3 3 3 4 5 5 5 4 5 3 2 3 6 4 4 5 7 7 4 4 4 5 5 5 5 5 5 5 5 5 5 5 5 5 5
1 2 1 1 2 3 2 1 1 1 2 3 3 5 5 4 2 1 3 5 6 6 4 5 7 7 6 3 3 4 4 4 4 4 4 4 4 4 4 5 4 4 4 4
1 1 1 2 2 1 1 1 2 2 2 2 2 3 3 3 3 3 3 4 6 6 4 5 7 6 4 3 4 4 4 4 4 4 4 4 4 4 4 4 4 4 3 3
1 1 1 1 2 2 2 2 2 1 2 3 2 2 2 2 3 4 4 5 6 6 5 4 4 4 4 4 4 4 5 5 4 4 4 4 4 4 4 4 4 4 4 4
2 1 1 1 1 1 1 2 3 2 2 3 3 2 3 3 3 4 5 4 4 4 4 3 4 4 4 4 4 4 4 3 3 4 4 4 4 4 4 5 4 4 4 4
Wind_Direction
193 203 188 208 232 218 185 183 182 212 199 207 189 171 159 145 141 139 143 146 148 150 152 152 155 159 157 155 154 151 147 147 151 148 137 125 121 118 113 108 104 100 95 83
333 355 331 271 246 228 214 193 185 181 219 214 175 147 143 145 147 151 154 156 156 156 157 160 163 161 157 152 152 149 148 153 150 140 133 129 126 120 110 101 93 89 88 83
239 319 42 266 233 215 218 208 171 190 212 169 153 160 162 161 159 161 163 162 162 166 167 166 165 160 157 153 149 150 152 152 151 149 144 141 134 123 119 116 106 94 85 82
127 80 216 242 243 193 186 216 177 166 165 164 167 166 163 160 158 161 163 159 163 166 165 161 157 151 148 142 147 153 156 157 157 150 148 145 139 137 136 123 114 103 90 86
122 158 265 287 273 186 170 244 168 146 143 137 129 99 91 178 166 168 166 164 168 166 162 156 154 152 144 147 150 151 155 158 155 149 147 146 144 142 136 123 109 102 101 93
124 151 216 247 269 198 120 222 210 145 148 147 125 134 206 202 171 153 149 150 156 152 147 153 157 151 148 153 155 160 161 158 151 147 148 150 148 141 133 126 122 110 96 92
141 184 252 254 283 96 147 216 206 154 154 152 160 181 185 172 158 155 147 146 151 150 153 160 155 149 152 156 165 163 150 143 141 142 143 144 137 136 134 128 120 110 103 88
147 177 248 286 9 158 202 197 161 149 147 143 146 138 144 150 153 152 149 152 154 153 154 152 153 152 157 165 162 145 140 140 140 142 141 136 130 130 132 135 128 123 115 94
183 208 237 259 175 190 148 136 138 139 138 134 132 137 142 146 148 152 153 154 153 150 149 151 158 158 161 163 150 143 141 143 143 138 130 133 139 142 136 135 137 139 137 133
159 261 282 33 55 51 95 126 140 138 134 137 140 141 136 138 140 148 151 151 150 147 150 156 157 156 160 155 150 147 149 150 147 141 134 129 135 144 147 153 153 153 153 157
142 280 12 11 36 58 76 93 100 104 119 135 135 138 142 147 150 157 156 157 155 156 157 159 154 152 154 152 151 150 154 154 151 147 144 136 124 123 155 171 178 171 175 172
206 218 179 242 293 84 94 107 116 107 94 118 131 138 142 153 162 161 159 153 151 151 151 152 150 153 156 156 156 156 160 162 161 156 152 146 137 100 48 74 137 168 172 168
205 210 194 226 337 57 85 99 111 112 130 143 143 145 142 152 167 159 155 154 156 157 155 153 151 153 159 159 160 165 167 167 165 165 163 162 159 153 141 58 58 92 148 163
165 117 82 50 60 51 81 88 87 89 109 140 145 135 132 139 148 155 158 161 156 150 151 153 155 164 167 163 163 167 167 169 170 172 173 172 172 170 165 161 159 130 50 172
39 131 143 141 69 74 85 86 81 77 84 90 102 122 134 137 145 152 148 144 141 143 151 157 163 173 171 165 163 166 168 171 171 172 174 173 171 168 166 165 163 161 146 89
149 96 104 117 135 118 93 93 101 102 109 110 101 109 134 134 137 133 130 139 147 154 161 162 169 174 166 159 158 162 171 172 169 171 172 171 171 169 169 169 171 175 181 180
119 115 110 129 134 123 134 136 139 135 130 138 139 144 135 127 126 130 133 137 144 151 156 163 170 167 162 161 160 164 169 174 172 170 173 173 172 174 175 175 178 183 191 187
170 172 175 175 179 183 151 135 126 123 136 155 146 141 136 141 152 156 147 130 123 130 155 166 164 158 160 163 163 164 167 172 172 171 172 172 172 174 174 176 181 182 182 184
151 154 156 154 169 168 170 166 150 143 147 146 142 145 145 151 148 143 138 136 144 156 174 166 157 159 165 169 162 160 162 162 164 164 165 164 164 169 172 173 177 179 178 175
115 125 134 132 119 145 152 141 133 130 137 140 136 138 145 154 149 142 137 146 168 175 168 158 157 159 165 169 161 163 165 166 168 165 162 166 168 171 176 176 173 174 175 177
88 97 113 111 94 108 125 126 130 129 137 141 146 155 159 158 151 143 140 154 189 156 149 150 154 161 161 159 155 160 165 164 166 167 168 170 170 174 179 179 177 178 178 176
55 55 69 117 106 104 88 107 124 125 121 134 141 144 143 146 148 141 152 170 171 151 145 149 155 156 155 149 153 158 162 163 165 166 168 171 172 175 175 172 174 178 178 178
46 49 51 81 124 117 67 82 121 139 147 151 151 155 156 158 157 155 169 182 153 146 145 152 150 145 145 145 150 155 158 163 167 168 167 169 169 167 167 169 174 175 173 176
35 35 34 67 88 95 94 81 80 116 141 142 155 157 150 142 131 137 147 147 146 141 140 146 142 141 139 138 140 144 150 156 159 159 156 153 156 160 162 166 166 168 168 167
87 63 68 90 100 131 152 116 93 92 117 123 128 129 131 141 150 153 141 143 141 133 128 138 141 141 140 135 138 138 139 141 145 150 151 150 153 154 155 157 160 162 166 168
112 116 165 176 171 176 169 142 138 148 130 123 111 108 110 113 124 125 127 134 136 135 135 138 138 137 136 133 133 134 136 140 142 142 141 144 143 144 145 144 144 152 155 160
35 27 39 40 38 146 149 142 140 138 135 137 134 129 125 124 120 122 122 127 133 131 128 130 131 131 128 129 130 131 135 140 142 142 143 140 141 144 147 144 141 141 145 150
Height
1500 1496 1495 1497 1498 1499 1508 1516 1524 1520 1516 1510 1506 1505 1508 1510 1513 1515 1517 1520 1522 1525 1527 1530 1533 1535 1537 1539 1541 1543 1544 1545 1546 1546 1547 1547 1547 1546 1546 1546 1546 1546 1546 1546
1499 1493 1493 1496 1494 1495 1498 1501 1507 1508 1509 1500 1501 1504 1507 1509 1512 1514 1516 1519 1521 1523 1526 1528 1531 1533 1535 1537 1539 1541 1543 1544 1545 1545 1546 1546 1546 1546 1546 1546 1545 1545 1545 1544
1511 1499 1497 1507 1494 1493 1494 1493 1498 1507 1504 1499 1502 1503 1504 1507 1510 1512 1514 1516 1519 1522 1524 1527 1529 1531 1533 1535 1538 1540 1541 1543 1544 1544 1545 1545 1545 1546 1545 1545 1545 1545 1544 1544
1512 1508 1519 1504 1484 1484 1488 1489 1489 1491 1493 1495 1497 1500 1503 1505 1507 1511 1513 1515 1518 1520 1523 1525 1528 1530 1532 1535 1537 1539 1540 1541 1542 1543 1544 1544 1545 1545 1545 1545 1545 1545 1544 1544
1518 1519 1511 1494 1482 1482 1488 1492 1487 1489 1492 1495 1498 1501 1505 1506 1507 1509 1511 1514 1517 1519 1522 1524 1526 1529 1531 1533 1535 1537 1538 1540 1540 1541 1542 1543 1544 1544 1545 1545 1545 1544 1544 1544
1514 1516 1519 1498 1479 1477 1483 1496 1485 1485 1489 1492 1496 1506 1505 1504 1506 1508 1511 1513 1516 1518 1520 1522 1525 1528 1530 1531 1533 1535 1536 1538 1539 1540 1541 1542 1543 1544 1544 1544 1544 1544 1544 1544
1510 1511 1504 1484 1477 1477 1498 1496 1483 1483 1485 1488 1491 1495 1498 1501 1503 1506 1508 1511 1514 1517 1519 1521 1523 1526 1528 1530 1531 1533 1535 1536 1538 1539 1540 1541 1542 1543 1543 1544 1544 1544 1544 1544
1509 1512 1506 1479 1477 1482 1483 1478 1480 1481 1483 1486 1489 1492 1496 1499 1501 1503 1506 1509 1512 1515 1517 1519 1522 1524 1526 1528 1530 1532 1534 1535 1536 1538 1539 1540 1541 1542 1543 1543 1543 1543 1543 1543
1497 1496 1483 1478 1477 1477 1477 1478 1479 1481 1483 1486 1489 1492 1494 1497 1499 1502 1505 1508 1510 1513 1516 1518 1520 1523 1524 1526 1529 1530 1532 1533 1535 1536 1538 1539 1540 1541 1541 1542 1542 1543 1543 1543
1488 1484 1481 1479 1478 1478 1478 1479 1480 1481 1483 1486 1488 1490 1493 1496 1498 1501 1503 1506 1509 1511 1514 1516 1519 1521 1523 1525 1527 1529 1530 1531 1533 1534 1536 1537 1539 1540 1540 1541 1541 1542 1542 1543
1487 1484 1482 1481 1480 1480 1479 1480 1481 1482 1484 1485 1487 1489 1491 1494 1497 1499 1502 1505 1507 1509 1511 1514 1516 1519 1521 1523 1525 1526 1528 1530 1531 1533 1534 1536 1537 1538 1539 1540 1541 1541 1542 1543
1488 1484 1484 1484 1483 1481 1481 1481 1482 1482 1484 1486 1488 1488 1491 1493 1495 1498 1501 1503 1505 1507 1509 1512 1514 1516 1519 1521 1522 1524 1526 1528 1529 1531 1532 1534 1535 1536 1537 1539 1540 1541 1542 1543
1480 1480 1482 1483 1482 1483 1482 1483 1483 1483 1484 1486 1487 1489 1490 1492 1495 1497 1498 1501 1503 1505 1508 1510 1512 1514 1516 1518 1520 1522 1524 1526 1527 1529 1530 1532 1533 1534 1535 1537 1539 1540 1541 1542
1478 1478 1480 1482 1482 1482 1483 1483 1483 1484 1485 1486 1487 1488 1489 1491 1493 1495 1497 1500 1502 1504 1506 1509 1511 1513 1515 1516 1519 1521 1522 1524 1526 1527 1529 1530 1531 1533 1534 1535 1537 1538 1539 1540
1478 1477 1479 1481 1481 1483 1484 1483 1483 1484 1485 1486 1487 1488 1489 1489 1491 1494 1496 1499 1501 1503 1505 1507 1509 1511 1512 1514 1516 1518 1520 1522 1524 1525 1527 1528 1530 1531 1533 1534 1535 1536 1537 1539
1478 1478 1479 1481 1482 1483 1483 1483 1483 1484 1485 1486 1486 1487 1488 1488 1491 1493 1495 1497 1499 1500 1503 1505 1507 1509 1510 1512 1514 1516 1518 1520 1521 1523 1524 1526 1528 1529 1530 1532 1533 1534 1535 1537
1478 1478 1479 1480 1480 1481 1481 1482 1483 1483 1484 1484 1485 1486 1488 1489 1490 1492 1494 1495 1497 1499 1502 1504 1505 1507 1508 1510 1512 1514 1516 1517 1519 1520 1522 1523 1525 1527 1528 1529 1531 1532 1533 1535
1476 1477 1478 1479 1480 1480 1481 1481 1482 1481 1482 1483 1484 1486 1486 1487 1488 1490 1492 1494 1496 1498 1500 1502 1504 1505 1507 1508 1510 1512 1514 1515 1516 1518 1520 1521 1522 1524 1526 1527 1528 1530 1531 1533
1475 1476 1478 1478 1479 1479 1480 1481 1481 1481 1481 1482 1484 1485 1486 1486 1487 1489 1491 1493 1495 1497 1499 1500 1502 1504 1505 1507 1508 1510 1512 1513 1515 1516 1518 1519 1521 1522 1524 1525 1526 1528 1529 1530
1473 1474 1475 1477 1478 1478 1478 1479 1480 1481 1481 1482 1483 1484 1485 1487 1488 1489 1490 1492 1493 1495 1497 1499 1501 1502 1504 1505 1506 1508 1510 1511 1512 1514 1515 1517 1518 1520 1522 1523 1524 1526 1527 1528
1472 1473 1473 1474 1475 1476 1476 1477 1478 1479 1480 1481 1482 1483 1484 1486 1487 1488 1489 1490 1492 1494 1496 1498 1499 1500 1502 1503 1505 1506 1508 1509 1510 1512 1513 1515 1516 1518 1519 1520 1522 1523 1524 1525
1471 1471 1472 1473 1474 1474 1475 1476 1477 1478 1479 1480 1481 1482 1483 1484 1485 1486 1487 1489 1491 1493 1494 1496 1498 1499 1500 1502 1503 1504 1506 1507 1508 1510 1511 1512 1514 1515 1516 1518 1519 1521 1522 1522
1471 1471 1472 1472 1473 1473 1474 1475 1476 1477 1478 1479 1480 1480 1481 1482 1483 1485 1486 1488 1490 1491 1493 1494 1496 1497 1498 1500 1501 1503 1504 1505 1506 1507 1509 1510 1512 1513 1514 1516 1517 1518 1519 1519
1471 1471 1472 1472 1472 1473 1474 1475 1476 1476 1477 1478 1478 1479 1480 1481 1482 1484 1485 1486 1488 1490 1491 1492 1494 1495 1497 1498 1500 1501 1502 1503 1504 1505 1507 1509 1510 1511 1512 1514 1514 1515 1516 1517
1470 1470 1471 1471 1471 1472 1473 1474 1475 1475 1476 1477 1477 1478 1480 1481 1481 1482 1484 1485 1487 1488 1490 1491 1492 1494 1495 1496 1498 1499 1500 1501 1502 1503 1505 1507 1508 1509 1510 1511 1512 1513 1514 1514
1469 1469 1469 1470 1470 1471 1471 1472 1472 1474 1474 1475 1476 1477 1478 1480 1481 1482 1483 1484 1485 1487 1488 1490 1491 1492 1493 1495 1496 1497 1498 1499 1501 1503 1504 1505 1506 1507 1508 1509 1510 1511 1511 1512
1467 1468 1468 1469 1469 1470 1470 1470 1471 1472 1473 1474 1475 1476 1477 1479 1480 1481 1482 1483 1485 1486 1487 1489 1490 1491 1492 1493 1494 1496 1497 1498 1500 1502 1503 1504 1505 1506 1507 1507 1508 1508 1509 1509